This is the latest recevied weather packets stored in our database for station/object JE6MIQ-13. If no packets are shown the sender has not sent any weather packets the latest 10 day(s).
| Time | Temp. | Humidity | Pressure | Rain* | Wind** | Luminosity | Snow |
|---|---|---|---|---|---|---|---|
| 1777939355 | 20.56° C | 29% | 1018.3 hPa | 0 mm | - | - | - |
| 1777938755 | 20.56° C | 29% | 1018.6 hPa | 0 mm | - | - | - |
| 1777938154 | 20° C | 29% | 1018.6 hPa | 0 mm | - | - | - |
| 1777937554 | 19.44° C | 29% | 1018.8 hPa | 0 mm | - | - | - |
| 1777936954 | 19.44° C | 29% | 1018.9 hPa | 0 mm | - | - | - |
| 1777936354 | 18.33° C | 29% | 1018.9 hPa | 0 mm | - | - | - |
| 1777935754 | 18.33° C | 29% | 1019 hPa | 0 mm | - | - | - |
| 1777935155 | 17.78° C | 29% | 1019.2 hPa | 0 mm | - | - | - |
| 1777934556 | 17.78° C | 29% | 1019.2 hPa | 0 mm | - | - | - |
| 1777933954 | 17.78° C | 29% | 1019.4 hPa | 0 mm | - | - | - |
| 1777933355 | 16.67° C | 25% | 1019.7 hPa | 0 mm | - | - | - |
| 1777932754 | 15.56° C | 27% | 1019.7 hPa | 0 mm | - | - | - |
| 1777932155 | 15° C | 30% | 1020 hPa | 0 mm | - | - | - |
| 1777931555 | 14.44° C | 33% | 1020 hPa | 0 mm | - | - | - |
| 1777930955 | 13.89° C | 36% | 1020 hPa | 0 mm | - | - | - |
| 1777930354 | 13.33° C | 39% | 1020.5 hPa | 0 mm | - | - | - |
| 1777929754 | 13.33° C | 43% | 1020.3 hPa | 0 mm | - | - | - |
| 1777929155 | 12.78° C | 51% | 1020.3 hPa | 0 mm | - | - | - |
| 1777928555 | 11.67° C | 55% | 1020.2 hPa | 0 mm | - | - | - |
| 1777927955 | 11.11° C | 55% | 1020.1 hPa | 0 mm | - | - | - |
| 1777927355 | 10.56° C | 54% | 1020.1 hPa | 0 mm | - | - | - |
| 1777926754 | 10.56° C | 53% | 1019.8 hPa | 0 mm | - | - | - |
| 1777926154 | 11.11° C | 53% | 1019.8 hPa | 0 mm | - | - | - |
| 1777925554 | 11.11° C | 54% | 1019.8 hPa | 0 mm | - | - | - |
| 1777924955 | 11.11° C | 52% | 1019.8 hPa | 0 mm | - | - | - |
* Rain latest hour (hover to see other rain measurements)
** Current wind speed in m/s (hover to see current wind gust speed)